Location: Finnegan
(51.1333°N, 112.0833°W)
Time: 12:44:15
(UTC+00:00)

N. Korean satellite - Pass Details

Date: 06 December 2021
Orbit: 447 x 490 km, 97.3° (Epoch: 27 January)

Event Time Altitude Azimuth Distance (km) Brightness Sun altitude
Rises 13:14:38 0° 9° (N) 2,471 10.1 -18.1°
Reaches altitude 10° 13:16:43 10° 4° (N) 1,590 9.1 -17.8°
Maximum altitude 13:20:01 51° 288° (WNW) 574 6.5 -17.3°
Drops below altitude 10° 13:23:18 10° 211° (SSW) 1,574 9.0 -16.8°
Sets 13:25:20 0° 207° (SSW) 2,442 10.0 -16.5°
